[[{"header":{"parameterUnit":"m.s-1","parameterCategory":1,"la1":30.2991,"la2":30.254,"lo1":-89.0895,"lo2":-89.0444,"dy":0.0017,"dx":0.0017,"nx":28,"ny":28,"refTime":"2024-07-25T09:00:00:Z","depth":0,"parameterNumber":2,"parameterNumberName":"U-component_of_WINDS"},"data":[0,0,0,0,0,0,0,0,0,0,0,0,0,0,0,0,0,0,0,0,0,0,0,0,0,0,0,0,0,0,0,0,0,0,0,0,0,0,0,0,0,0,0,0,0,0,0,0,0,0,0,0,0,0,0,0,0,0,-0.721,-0.7209,0,-0.7179,-0.7179,-0.7178,-0.7148,-0.7148,-0.7147,-0.7147,-0.7115,-0.7115,-0.7114,0,0,0,0,0,0,0,0,0,0,0,0,0,-0.7241,-0.7241,-0.721,-0.7209,-0.7209,-0.7179,-0.7179,-0.7178,-0.7148,-0.7148,-0.7147,-0.7147,-0.7115,-0.7115,-0.7114,0,0,0,0,0,0,0,0,0,0,0,0,0,-0.7221,-0.7241,-0.721,-0.719,-0.7188,-0.7179,-0.7179,-0.7178,-0.7148,-0.7148,-0.7147,-0.7147,-0.7115,-0.7115,-0.7114,-0.7121,0,0,-0.7112,-0.7111,0,0,0,0,0,0,0,0,-0.7222,-0.722,-0.7194,-0.7192,-0.7189,-0.7167,-0.7178,-0.7159,-0.7148,-0.7163,-0.7147,-0.7146,-0.7133,-0.7131,-0.7126,-0.712,-0.7119,-0.7112,-0.7111,-0.7111,-0.7111,0,0,0,0,0,0,0,-0.7224,-0.7221,-0.7198,-0.7193,-0.7191,-0.7183,-0.7179,-0.7175,-0.7152,-0.7162,-0.716,-0.7157,-0.7131,-0.7127,-0.7125,-0.7118,-0.7112,-0.7111,-0.7111,-0.711,-0.7117,-0.7118,0,0,0,0,0,0,-0.7228,-0.7222,-0.7199,-0.7197,-0.7205,-0.7183,-0.7179,-0.7175,-0.7152,-0.7148,-0.7157,-0.7155,-0.7128,-0.7126,-0.7124,-0.7132,-0.7111,-0.711,-0.711,-0.7117,-0.7118,-0.7118,0,0,0,0,0,0,-0.7229,-0.7226,-0.72,-0.7209,-0.7205,-0.7183,-0.7178,-0.7174,-0.717,-0.7148,-0.7144,-0.7157,-0.7128,-0.7125,-0.7123,-0.713,-0.711,-0.7109,-0.7116,-0.7117,-0.7118,-0.7147,0,0,0,0,0,0,-0.723,-0.7227,-0.7229,-0.7209,-0.7205,-0.7199,-0.7179,-0.7174,-0.7169,-0.7166,-0.7147,-0.7143,-0.7127,-0.7124,-0.7122,-0.7129,-0.7109,-0.7115,-0.7117,-0.7118,-0.7146,-0.7149,-0.7152,0,0,0,0,0,-0.7231,-0.7239,-0.723,-0.7227,-0.7208,-0.72,-0.7197,-0.7179,-0.7169,-0.7172,-0.7158,-0.7143,-0.713,-0.7124,-0.7121,-0.7128,-0.7115,-0.7116,-0.7118,-0.7144,-0.7148,-0.7152,0,0,0,0,0,0,-0.726,-0.7236,-0.7225,-0.7227,-0.7215,-0.7195,-0.7197,-0.7184,-0.7175,-0.7173,-0.7151,-0.7147,-0.7147,-0.7137,-0.7131,-0.7135,-0.712,-0.7121,-0.7141,-0.7145,-0.7148,-0.7151,-0.7108,0,0,0,0,0,-0.7266,-0.7262,-0.7241,-0.7244,-0.7239,-0.7219,-0.7215,-0.7202,-0.719,-0.7185,-0.7171,-0.7159,-0.7152,-0.7148,-0.714,-0.7144,-0.7139,-0.7148,-0.7151,-0.7154,-0.7155,-0.7157,-0.716,-0.7123,-0.7123,-0.7123,0,0,-0.728,-0.7266,-0.7264,-0.7249,-0.7239,-0.7236,-0.7215,-0.7212,-0.7209,-0.7184,-0.7181,-0.7171,-0.7156,-0.7157,-0.7157,-0.7149,-0.7164,-0.7155,-0.7158,-0.7157,-0.7158,-0.7162,-0.7165,-0.7124,-0.7124,-0.7123,0,0,-0.7302,-0.7291,-0.7293,-0.7283,-0.7268,-0.7255,-0.7256,-0.7237,-0.7229,-0.7226,-0.7207,-0.7203,-0.7192,-0.7182,-0.7176,-0.7196,-0.7182,-0.7194,-0.7211,-0.7213,-0.7216,-0.7219,-0.7226,-0.7229,-0.7195,-0.7195,-0.7195,0,-0.732,-0.7314,-0.7295,-0.7293,-0.7287,-0.7265,-0.7267,-0.7258,-0.7242,-0.7238,-0.723,-0.7215,-0.7204,-0.7202,-0.7207,-0.7203,-0.7203,-0.7196,-0.7217,-0.722,-0.7222,-0.7229,-0.7231,-0.7197,-0.7196,-0.7196,-0.7196,0,-0.7337,-0.7333,-0.7337,-0.7322,-0.7316,-0.7316,-0.7297,-0.7294,-0.7282,-0.7269,-0.7267,-0.7252,-0.7242,-0.7241,-0.7228,-0.7238,-0.7233,-0.7221,-0.7206,-0.7227,-0.7233,-0.7236,-0.7199,-0.7198,-0.7198,-0.7197,0,0,-0.7377,-0.7352,-0.7354,-0.7347,-0.7329,-0.7326,-0.7325,-0.7315,-0.7312,-0.7302,-0.7301,-0.7292,-0.7281,-0.7274,-0.726,-0.7262,-0.7279,-0.725,-0.7249,-0.7256,-0.7289,-0.7299,-0.7302,-0.727,-0.727,-0.7271,-0.7291,0,-0.7397,-0.7394,-0.7377,-0.7379,-0.7375,-0.7355,-0.7354,-0.7343,-0.7332,-0.7327,-0.7314,-0.7308,-0.7294,-0.729,-0.729,-0.7277,-0.7286,-0.7275,-0.7269,-0.7269,-0.7273,-0.7305,-0.7315,-0.7334,-0.7293,-0.7293,-0.7293,0,-0.7419,-0.7411,-0.7413,-0.7396,-0.7393,-0.7393,-0.7383,-0.7378,-0.7366,-0.7357,-0.735,-0.7335,-0.7333,-0.7319,-0.7316,-0.7309,-0.7305,-0.7299,-0.7299,-0.7298,-0.7283,-0.7305,-0.734,-0.7343,-0.7297,-0.7297,-0.7296,0,-0.7449,-0.7437,-0.7437,-0.7432,-0.7412,-0.7412,-0.7404,-0.7391,-0.7386,-0.7377,-0.7374,-0.7365,-0.736,-0.7353,-0.7336,-0.7327,-0.7335,-0.732,-0.7328,-0.7329,-0.7331,-0.7331,-0.7367,-0.7328,-0.7328,-0.7328,-0.7328,0,-0.7473,-0.7475,-0.745,-0.745,-0.7452,-0.7433,-0.7435,-0.7425,-0.7413,-0.7411,-0.7392,-0.739,-0.7368,-0.7364,-0.735,-0.735,-0.7348,-0.7341,-0.7338,-0.7343,-0.7344,-0.7341,-0.7339,-0.7329,-0.7329,-0.7329,-0.7329,0,-0.7506,-0.7489,-0.7488,-0.7469,-0.7465,-0.7467,-0.7451,-0.745,-0.7438,-0.7435,-0.7434,-0.7414,-0.7408,-0.7391,-0.738,-0.7371,-0.7375,-0.7368,-0.7379,-0.7377,-0.7387,-0.7387,-0.7422,-0.7426,-0.7385,-0.7385,-0.7386,0,-0.7522,-0.7524,-0.7505,-0.7503,-0.7495,-0.7491,-0.7486,-0.7467,-0.7463,-0.7449,-0.745,-0.7443,-0.7436,-0.7427,-0.7412,-0.7404,-0.7397,-0.741,-0.7396,-0.7401,-0.7398,-0.7398,-0.7399,-0.7413,-0.7414,-0.7414,-0.7415,0,-0.7554,-0.7546,-0.754,-0.7532,-0.7527,-0.7519,-0.751,-0.7509,-0.7488,-0.7484,-0.7478,-0.7473,-0.7462,-0.7455,-0.7445,-0.7436,-0.7422,-0.7419,-0.7421,-0.7427,-0.7433,-0.743,-0.7388,-0.7418,-0.7418,-0.7418,-0.7418,-0.7417,-0.758,-0.758,-0.7568,-0.7562,-0.7553,-0.7546,-0.7544,-0.7532,-0.7527,-0.7517,-0.7506,-0.7501,-0.7489,-0.7474,-0.7466,-0.7462,-0.7454,-0.7457,-0.7457,-0.7458,-0.7461,-0.7434,-0.746,-0.746,-0.746,-0.7459,-0.7459,0,-0.7611,-0.7602,-0.7597,-0.7586,-0.7581,-0.7568,-0.7558,-0.7555,-0.7552,-0.7541,-0.7535,-0.7528,-0.7521,-0.7506,-0.7498,-0.7498,-0.7491,-0.7496,-0.7496,-0.7495,-0.7468,-0.7468,-0.7502,-0.7502,-0.7502,-0.7502,-0.7502,-0.7502,-0.7627,-0.7627,-0.7618,-0.7614,-0.7604,-0.76,-0.7595,-0.7588,-0.758,-0.7573,-0.7568,-0.7558,-0.7546,-0.7537,-0.753,-0.7526,-0.7524,-0.7531,-0.7525,-0.75,-0.7496,-0.7493,-0.7492,-0.7531,-0.7531,-0.7551,-0.7552,-0.7552]},{"header":{"parameterUnit":"m.s-1","parameterCategory":1,"la1":30.2991,"la2":30.254,"lo1":-89.0895,"lo2":-89.0444,"dy":0.0017,"dx":0.0017,"nx":28,"ny":28,"refTime":"2024-07-25T09:00:00:Z","depth":0,"parameterNumber":3,"parameterNumberName":"V-component_of_WINDS"},"data":[0,0,0,0,0,0,0,0,0,0,0,0,0,0,0,0,0,0,0,0,0,0,0,0,0,0,0,0,0,0,0,0,0,0,0,0,0,0,0,0,0,0,0,0,0,0,0,0,0,0,0,0,0,0,0,0,0,0,1.0527,1.0526,0,1.0417,1.0416,1.0415,1.0306,1.0304,1.0303,1.0301,1.0189,1.0187,1.0186,0,0,0,0,0,0,0,0,0,0,0,0,0,1.064,1.0639,1.0527,1.0525,1.0524,1.0417,1.0416,1.0414,1.0306,1.0304,1.0302,1.0301,1.0189,1.0187,1.0185,0,0,0,0,0,0,0,0,0,0,0,0,0,1.0567,1.0638,1.0527,1.0457,1.045,1.0418,1.0416,1.0414,1.0306,1.0304,1.0302,1.03,1.019,1.0188,1.0185,1.0213,0,0,1.0178,1.0177,0,0,0,0,0,0,0,0,1.0571,1.0563,1.0469,1.0462,1.0453,1.0373,1.0415,1.0347,1.0307,1.0361,1.0301,1.0299,1.0252,1.0244,1.0228,1.0208,1.0203,1.0177,1.0176,1.0175,1.0174,0,0,0,0,0,0,0,1.0577,1.0567,1.0483,1.0467,1.0458,1.0431,1.0418,1.0401,1.032,1.0356,1.0348,1.0336,1.0247,1.0231,1.0225,1.0202,1.0177,1.0175,1.0174,1.0173,1.0198,1.02,0,0,0,0,0,0,1.0593,1.0572,1.0487,1.048,1.0508,1.043,1.0416,1.0401,1.032,1.0305,1.0338,1.0331,1.0236,1.0228,1.022,1.0247,1.0175,1.0173,1.0171,1.0196,1.0198,1.02,0,0,0,0,0,0,1.0595,1.0586,1.0491,1.0524,1.051,1.0431,1.0415,1.04,1.0383,1.0306,1.0291,1.0337,1.0234,1.0224,1.0216,1.0242,1.0171,1.0169,1.0193,1.0196,1.0199,1.0302,0,0,0,0,0,0,1.0599,1.0588,1.0598,1.0525,1.0508,1.0489,1.0416,1.0399,1.038,1.037,1.0301,1.0287,1.0232,1.022,1.0213,1.0237,1.0167,1.019,1.0194,1.0198,1.0296,1.0309,1.0319,0,0,0,0,0,1.0604,1.0632,1.0599,1.0589,1.052,1.0491,1.0481,1.0417,1.0382,1.0392,1.0342,1.0289,1.024,1.022,1.0212,1.0235,1.0188,1.0193,1.0198,1.0291,1.0306,1.0319,0,0,0,0,0,0,1.071,1.0621,1.0584,1.0589,1.0548,1.0473,1.0482,1.0435,1.0403,1.0396,1.0317,1.0302,1.0303,1.0268,1.0247,1.0258,1.0207,1.021,1.028,1.0294,1.0306,1.0314,1.0165,0,0,0,0,0,1.0734,1.0718,1.0641,1.0653,1.0634,1.0562,1.0547,1.0501,1.0456,1.0438,1.0387,1.0345,1.032,1.0305,1.0278,1.029,1.0273,1.0302,1.0314,1.0324,1.0328,1.0331,1.0343,1.0216,1.0216,1.0216,0,0,1.0783,1.0733,1.0728,1.0673,1.0636,1.0621,1.0549,1.0536,1.0524,1.0436,1.0425,1.0387,1.0334,1.0336,1.0335,1.0307,1.0359,1.033,1.0338,1.0337,1.0337,1.0349,1.036,1.022,1.0219,1.0218,0,0,1.0866,1.0826,1.0832,1.0796,1.0741,1.0692,1.0694,1.0625,1.0596,1.0584,1.0517,1.0501,1.046,1.0425,1.0402,1.047,1.0421,1.0463,1.0524,1.0528,1.0538,1.0546,1.057,1.058,1.0467,1.0468,1.0468,0,1.0934,1.091,1.084,1.0831,1.0809,1.0729,1.0733,1.0701,1.0641,1.0627,1.0597,1.0542,1.0501,1.0494,1.051,1.0495,1.0493,1.0471,1.0542,1.055,1.0556,1.0578,1.0588,1.0473,1.0473,1.0472,1.0472,0,1.0996,1.098,1.0991,1.0933,1.0912,1.091,1.084,1.0827,1.0782,1.0737,1.0725,1.0673,1.0633,1.0628,1.0585,1.0614,1.0599,1.0557,1.0504,1.0575,1.0594,1.0602,1.0481,1.0479,1.0478,1.0476,0,0,1.1143,1.1047,1.1052,1.1025,1.0958,1.0943,1.0937,1.0898,1.0888,1.0849,1.0841,1.0807,1.0768,1.0742,1.0693,1.0697,1.0754,1.0654,1.0652,1.0674,1.0782,1.0814,1.0825,1.072,1.0722,1.0723,1.0786,0,1.1214,1.1198,1.1135,1.1138,1.1122,1.1045,1.1039,1.0997,1.0955,1.0934,1.0886,1.0864,1.0813,1.0797,1.0797,1.0747,1.0774,1.0742,1.0712,1.0712,1.0728,1.0835,1.0869,1.0931,1.0794,1.0795,1.0796,0,1.1294,1.126,1.1261,1.1194,1.1184,1.1181,1.1139,1.1121,1.1071,1.104,1.1011,1.0957,1.0945,1.0896,1.0879,1.0858,1.0842,1.0816,1.0816,1.0811,1.0758,1.0832,1.095,1.0959,1.0807,1.0806,1.0805,0,1.1401,1.1354,1.1349,1.1328,1.1249,1.1248,1.1215,1.1164,1.1144,1.1108,1.1094,1.1057,1.1037,1.101,1.0947,1.0917,1.0936,1.0882,1.091,1.0911,1.0917,1.0918,1.1034,1.0908,1.0908,1.0908,1.0907,0,1.1486,1.149,1.1396,1.1392,1.1394,1.1321,1.1325,1.1284,1.1239,1.1226,1.1157,1.1146,1.1064,1.1044,1.0994,1.0987,1.0979,1.0953,1.0939,1.0959,1.0962,1.0947,1.0941,1.091,1.0909,1.0909,1.0909,0,1.1605,1.1542,1.1531,1.1457,1.1439,1.1443,1.138,1.1373,1.1326,1.1311,1.1303,1.1229,1.1201,1.1136,1.1091,1.1058,1.1063,1.1039,1.108,1.1072,1.1102,1.11,1.1213,1.1223,1.1092,1.1093,1.1095,0,1.1664,1.1665,1.1591,1.1578,1.1547,1.1527,1.1506,1.1434,1.1415,1.1358,1.1359,1.1326,1.1295,1.1255,1.1197,1.1162,1.1137,1.1178,1.1131,1.115,1.1136,1.1137,1.1136,1.1189,1.1191,1.1192,1.1193,0,1.1774,1.1743,1.1716,1.1678,1.1656,1.1622,1.1585,1.1578,1.1497,1.1479,1.145,1.1427,1.1381,1.1348,1.1304,1.127,1.1218,1.1209,1.1213,1.1233,1.1256,1.1243,1.1108,1.1206,1.1205,1.1204,1.1203,1.1203,1.1864,1.1861,1.1809,1.1781,1.1745,1.1712,1.1702,1.1654,1.1628,1.1585,1.1544,1.1519,1.1468,1.1404,1.1373,1.1352,1.1325,1.1332,1.1333,1.1336,1.1344,1.126,1.1343,1.1343,1.1342,1.1342,1.1342,0,1.1971,1.1933,1.1908,1.1858,1.1836,1.1789,1.1745,1.173,1.1709,1.1666,1.1637,1.1604,1.1572,1.1511,1.1474,1.1469,1.1444,1.1461,1.1461,1.1454,1.137,1.137,1.1482,1.1482,1.1482,1.1482,1.1482,1.1482,1.2023,1.2016,1.1978,1.1952,1.1913,1.1888,1.1867,1.1836,1.1801,1.1767,1.174,1.17,1.165,1.1609,1.1577,1.156,1.1549,1.1574,1.155,1.1473,1.146,1.1447,1.1446,1.1573,1.1573,1.1635,1.1635,1.1636]}]]